The following orbital elements are taken from MPO181513
Epoch 2011 Feb. 8.0 TT = JDT 2455600.5 MPC
M 23.80075 (2000.0) P Q
n 0.03775056 Peri. 28.17638 +0.91468801 -0.33672017
a 8.8007662 Node 15.13993 -0.16581561 -0.81703084
e 0.6593538 Incl. 121.14591 +0.36857975 +0.46805997
P 26.1 H 14.5 G 0.15 U 8
From 23 observations 2010 Aug. 5-12, mean residual 0".82.